Dewpoint
56 55 55 56 55 56 56 57 58 58 58 57 57 58 58 57 53 42 37 42 48 54 55 50 49 44 44 45 47 47 36 30 32 33 33 30 23 26 31 32 36 37 34 35 38
58 58 58 57 58 58 58 58 58 57 58 58 58 58 58 58 43 33 39 49 52 54 47 42 38 40 40 40 41 37 26 28 36 34 31 28 24 27 30 34 34 34 36 37 37
57 58 58 58 58 58 58 58 58 58 59 59 58 58 58 58 36 33 46 50 50 50 46 44 42 38 36 38 36 36 31 37 33 34 30 27 24 26 29 31 35 33 35 36 36
57 58 58 58 58 58 58 58 58 58 59 58 58 59 60 47 18 35 46 49 47 48 40 39 36 35 34 32 34 32 35 34 33 30 30 27 28 23 30 28 34 35 35 35 35
57 58 58 58 58 58 58 59 59 58 58 57 58 60 45 34 26 33 44 45 43 37 35 36 33 33 30 33 31 31 29 32 32 30 28 28 25 24 26 35 35 35 34 34 34
57 57 57 57 57 58 58 58 58 58 58 57 58 59 39 24 27 31 36 30 33 34 34 36 35 33 29 27 28 27 29 31 32 30 27 27 27 27 28 35 35 33 32 32 32
56 57 57 57 57 57 57 58 57 56 55 58 58 54 39 27 21 32 31 27 31 32 34 37 36 33 30 23 26 29 27 29 29 28 25 27 25 26 30 35 34 32 32 32 32
56 56 56 57 56 56 57 57 56 55 56 57 58 46 28 28 24 22 24 24 29 32 35 37 37 34 32 28 24 24 24 21 23 27 26 25 15 23 32 34 33 32 32 32 32
56 56 56 56 56 56 56 54 53 54 56 57 46 40 29 24 15 22 22 23 28 32 33 34 34 31 29 24 20 22 14 19 19 28 26 23 18 23 31 37 35 33 32 32 32
55 55 56 57 57 57 54 51 50 47 45 49 46 35 30 18 21 23 24 25 29 30 32 29 30 29 27 23 10 13 17 18 16 23 27 25 23 24 31 36 34 34 34 33 33
57 56 55 56 56 56 43 41 36 37 35 28 31 26 22 22 23 22 25 25 28 30 27 29 23 19 24 25 20 16 19 18 20 22 25 24 24 25 27 34 34 33 33 33 32
55 56 57 55 55 54 50 39 37 37 31 34 33 34 31 21 17 18 25 25 27 26 29 28 23 20 26 26 24 22 18 16 20 22 24 23 24 26 28 30 32 32 32 32 32
52 54 55 56 53 47 33 38 42 38 28 28 33 31 29 22 20 18 22 25 26 26 27 25 25 28 25 25 25 24 20 20 19 21 24 24 23 24 26 28 30 32 32 32 31
51 52 52 55 43 36 38 42 41 38 26 26 27 26 25 24 20 25 24 24 24 24 26 27 27 25 27 25 24 21 24 23 21 20 17 23 13 17 20 20 25 29 31 32 32
52 52 52 54 29 39 41 44 40 38 11 26 23 25 25 21 24 25 26 25 22 25 26 24 24 26 25 24 23 21 24 23 22 20 20 20 18 17 20 18 17 19 23 29 32
51 52 52 46 44 38 47 44 37 25 12 22 21 21 22 22 22 28 26 28 30 27 24 24 27 25 24 24 24 23 23 25 27 24 18 19 18 13 15 17 16 16 17 22 32
50 51 52 50 40 43 47 34 22 17 24 22 23 21 21 20 21 24 24 22 18 18 16 19 17 24 24 22 26 24 21 16 16 19 15 18 19 16 14 15 15 14 17 23 31
48 51 53 48 41 43 38 26 19 22 25 30 31 28 19 20 21 22 26 24 26 23 22 16 12 20 24 23 21 24 20 16 10 10 10 20 15 14 19 17 17 19 20 23 32
48 47 47 47 47 44 34 23 22 24 30 31 31 28 21 22 23 22 24 23 24 25 19 17 19 22 23 23 23 21 22 20 15 17 15 16 21 18 22 21 20 21 21 23 29
45 47 46 49 41 40 31 27 28 32 30 31 30 29 27 27 28 26 24 24 22 26 25 22 20 21 21 24 24 22 24 20 21 15 13 13 14 12 14 15 16 20 22 23 30
43 39 45 47 38 32 31 31 32 32 33 29 29 30 30 29 29 28 27 28 40 39 37 29 24 25 25 23 21 23 22 24 22 20 15 13 13 16 15 15 14 16 21 24 29
39 35 40 44 36 36 33 32 34 32 29 34 34 37 34 31 34 34 31 31 43 42 39 40 39 31 27 25 25 23 21 21 20 19 20 17 15 17 16 16 17 16 18 25 31
36 32 33 41 27 31 32 30 28 23 17 20 28 31 28 33 30 36 37 39 43 40 39 40 37 33 32 31 29 28 28 27 22 22 20 19 19 21 21 20 18 19 20 24 28
33 22 30 32 32 28 27 23 22 20 19 23 20 26 24 22 24 25 28 33 28 35 39 40 37 36 31 33 33 31 31 34 33 25 22 21 21 22 21 18 19 19 19 21 25
34 34 34 21 24 29 28 24 20 20 25 24 22 25 24 23 22 22 23 23 26 29 39 36 30 31 32 30 30 29 28 29 31 31 28 30 29 23 23 23 23 21 19 20 23
34 32 35 32 32 29 27 22 23 28 28 24 26 27 26 24 24 25 27 29 27 29 30 34 26 27 27 28 26 23 25 28 31 26 29 32 32 31 27 25 24 23 21 20 21
41 40 36 31 29 28 27 27 28 29 29 28 29 29 28 27 28 29 31 31 30 29 28 27 28 24 20 21 21 20 20 26 24 23 29 30 37 35 33 34 29 24 25 22 19
Wind_Speed
4 1 1 3 5 6 7 8 9 9 10 10 9 9 10 11 13 1 3 3 2 5 5 7 3 3 0 1 2 3 2 6 4 9 6 10 9 2 4 9 2 2 9 8 20
7 4 3 2 4 5 7 7 8 9 9 8 8 9 10 11 3 6 5 4 4 5 1 4 3 2 1 1 1 2 4 7 4 4 10 16 12 12 7 8 2 2 2 17 21
9 7 5 5 5 5 6 6 7 8 9 8 8 9 10 8 2 4 8 6 6 2 1 3 5 2 2 3 3 4 6 6 4 1 7 14 9 6 12 12 12 20 21 20 18
9 9 8 8 8 8 8 8 8 8 9 9 8 9 10 0 4 2 6 7 6 2 4 3 1 1 3 5 5 4 7 5 4 2 4 11 5 9 17 14 15 25 28 24 23
10 10 10 10 10 10 10 10 10 10 11 10 8 8 1 1 6 4 7 7 5 1 3 2 2 2 4 5 4 9 6 5 5 5 5 3 14 12 19 8 10 22 23 26 23
9 10 11 11 12 12 12 12 12 12 13 12 9 7 1 4 3 8 8 3 5 2 3 4 3 2 6 6 10 5 9 7 7 7 6 7 10 7 12 7 15 26 28 26 27
9 10 10 11 12 13 14 14 14 14 13 11 8 4 2 10 2 10 7 3 3 2 3 2 1 0 3 3 4 4 5 5 10 8 6 5 13 21 9 15 22 25 25 25 26
8 8 9 10 11 13 14 15 16 16 14 5 4 2 7 3 1 7 6 4 5 5 4 5 0 1 3 3 1 4 1 7 6 12 7 11 22 20 17 24 25 27 26 25 27
9 9 9 10 11 13 15 18 15 10 7 6 3 1 8 1 4 10 6 4 7 5 5 4 0 4 2 4 2 3 7 13 9 18 6 16 14 11 16 26 28 29 29 28 26
14 12 12 12 12 13 18 13 5 6 2 1 4 5 5 4 3 5 7 4 4 4 1 2 1 4 4 9 19 12 11 8 10 9 14 20 29 18 8 25 34 30 30 27 28
19 18 16 14 11 10 11 2 3 1 2 9 5 4 2 1 3 3 3 2 1 2 7 5 8 21 25 25 6 9 10 9 8 8 17 28 33 32 25 18 25 27 27 30 34
19 18 17 14 13 10 3 3 1 2 10 13 21 14 8 3 3 5 5 6 5 11 7 4 20 27 12 19 22 20 21 24 18 16 17 20 34 30 16 22 29 35 30 32 28
21 19 20 17 15 1 1 1 2 0 5 8 6 6 6 10 6 7 16 6 7 10 15 13 8 6 18 17 17 23 26 18 21 7 10 8 27 22 17 27 31 31 28 29 34
22 20 21 23 1 3 2 3 1 3 4 5 1 2 4 6 6 9 19 7 4 11 15 14 24 26 12 16 23 29 14 23 22 10 20 11 34 19 15 28 22 33 31 35 34
25 21 19 4 2 2 2 5 1 2 6 0 0 2 1 4 7 2 4 4 10 9 1 10 9 17 26 29 15 18 10 16 15 15 8 11 11 4 15 23 31 28 34 37 34
27 21 18 2 3 4 6 3 2 2 5 1 2 2 2 5 4 2 2 1 2 7 16 23 9 8 9 15 20 5 4 2 3 2 20 21 18 45 21 27 27 30 27 29 27
28 23 9 2 2 8 5 2 2 4 3 1 1 4 6 6 5 9 9 10 11 6 10 8 22 16 13 13 2 11 8 10 10 12 27 15 18 37 14 17 23 27 29 22 25
29 19 1 4 2 8 4 2 6 3 5 3 9 7 9 5 7 4 5 11 12 9 7 12 23 14 19 30 25 20 21 20 20 20 27 12 19 26 18 31 33 27 26 12 19
18 5 3 5 1 2 4 1 3 2 6 14 14 5 4 2 3 5 11 15 11 24 16 9 18 11 11 25 24 14 22 20 22 3 11 12 16 21 16 18 21 24 23 26 23
4 4 6 12 4 5 4 4 4 8 13 9 6 7 9 10 18 10 3 2 6 11 19 7 30 19 21 7 11 21 8 9 9 21 29 21 15 25 7 27 30 23 23 27 21
5 5 8 13 5 6 2 5 5 18 16 9 13 16 17 15 13 15 9 14 15 12 11 9 15 27 12 11 19 10 21 10 9 18 28 35 24 16 29 31 27 27 30 29 26
4 5 9 8 3 3 2 5 9 13 15 7 10 7 6 17 13 10 14 11 14 9 11 6 8 22 23 22 25 30 29 33 30 30 12 30 47 5 10 13 20 29 26 21 21
5 3 5 5 4 6 9 11 10 9 11 8 6 6 16 9 11 6 10 14 13 16 16 12 7 19 23 19 4 6 11 21 23 29 35 38 45 10 22 27 22 17 17 18 23
4 5 7 9 5 5 6 7 7 15 5 10 10 5 16 8 11 14 16 10 21 20 16 4 7 15 20 9 11 17 33 31 18 22 32 38 47 40 22 16 22 25 24 23 25
7 3 1 7 6 9 3 5 8 7 9 11 5 11 12 9 21 13 25 21 8 13 1 3 16 18 25 31 31 29 30 33 34 27 18 39 43 41 33 32 34 29 20 17 22
4 3 4 4 3 6 5 2 5 5 7 11 8 16 18 16 19 25 20 18 14 12 12 9 26 21 27 29 27 28 22 29 34 33 33 32 41 33 39 28 27 28 23 28 25
4 4 2 5 2 3 3 1 8 19 12 10 17 24 20 20 15 20 20 22 21 26 29 25 23 19 31 30 26 25 22 26 22 22 18 27 20 31 31 38 33 29 27 32 34
Wind_Direction
80 51 285 264 271 276 282 283 287 289 290 295 302 315 326 333 319 284 251 209 225 303 312 299 300 274 11 19 75 82 124 212 191 181 216 181 164 113 82 134 100 232 164 189 165
50 47 30 346 312 301 293 292 294 295 293 299 313 327 331 340 318 261 240 223 264 299 319 10 32 316 46 192 98 149 180 209 195 211 203 188 178 150 155 153 140 135 149 155 148
31 25 21 9 343 326 312 310 307 308 304 309 322 332 330 336 318 241 185 221 253 279 270 303 307 227 196 159 188 183 214 206 216 181 171 186 194 172 164 206 193 172 161 169 168
25 20 13 9 355 336 326 322 314 309 310 317 330 338 324 25 192 230 188 230 253 305 328 335 301 179 192 202 215 209 232 203 204 191 164 198 192 208 186 215 190 179 174 179 189
15 13 10 6 355 341 338 332 324 321 317 321 335 346 25 318 253 186 193 239 280 240 253 312 237 206 210 220 225 222 232 219 191 200 224 215 213 208 219 226 202 178 177 186 194
11 7 3 357 350 343 339 335 328 325 324 326 336 336 68 247 171 171 191 235 244 213 267 226 209 248 280 248 202 211 227 207 205 229 238 219 231 201 225 195 180 177 186 192 192
4 359 353 348 342 338 334 328 320 319 322 329 337 335 279 238 224 183 189 209 200 206 289 338 213 313 321 259 223 174 179 240 228 218 236 164 249 228 204 181 179 189 194 199 203
356 345 339 335 335 332 328 319 312 314 313 342 3 341 255 257 187 195 202 262 248 231 233 273 1 325 236 291 1 192 196 242 261 197 229 171 256 243 199 179 192 199 204 207 212
348 340 334 331 331 326 320 311 305 301 295 306 345 180 268 298 207 217 191 213 224 250 240 280 117 217 203 169 262 254 245 228 280 203 172 191 254 259 191 192 206 208 211 213 218
2 349 340 334 329 328 318 301 285 324 46 169 264 313 258 240 194 174 192 205 195 200 271 200 170 202 177 171 224 215 224 235 234 214 204 212 241 246 218 202 217 216 216 217 219
3 355 341 329 322 333 345 25 1 309 196 212 199 233 341 343 92 184 181 189 225 176 204 207 197 215 209 207 200 220 225 239 253 234 206 229 237 248 243 217 231 229 222 219 221
0 354 345 329 324 322 314 52 127 263 300 245 244 251 272 217 276 240 148 183 199 217 197 201 230 233 220 225 232 244 258 266 275 263 205 245 246 245 237 233 226 231 225 223 224
353 346 344 334 321 42 46 41 319 57 282 296 220 209 203 182 238 240 172 194 217 232 222 215 233 244 213 234 231 241 241 249 253 277 229 274 270 255 248 236 235 239 233 226 219
347 343 340 328 76 337 129 298 350 110 342 292 262 312 134 115 266 217 185 182 227 249 231 243 249 256 232 234 219 243 229 236 252 244 261 197 277 235 243 250 238 237 238 231 223
342 340 341 331 262 153 276 314 2 93 328 216 291 326 91 188 330 24 180 205 235 245 211 246 272 245 243 237 217 239 211 217 234 247 267 237 257 242 228 247 256 253 240 232 224
336 335 335 4 310 256 319 342 73 6 268 156 115 183 149 236 258 326 152 21 227 259 250 252 260 286 260 250 229 202 174 38 47 153 252 232 212 273 236 235 247 256 266 241 215
332 323 313 278 290 348 344 51 8 215 341 72 352 206 219 238 237 202 198 197 219 256 264 288 251 232 220 248 243 185 164 238 244 215 247 195 214 240 252 241 239 255 269 254 210
329 323 197 235 296 0 25 29 219 247 269 48 350 293 218 208 240 238 200 236 236 231 280 278 284 206 213 213 215 207 199 211 240 242 257 194 231 245 234 248 255 242 248 249 213
333 353 12 323 321 94 51 233 256 297 357 345 335 304 249 146 298 311 219 235 231 206 221 243 261 238 228 219 205 222 221 229 259 255 271 239 263 281 257 250 257 252 243 242 217
21 20 10 354 80 62 92 247 286 22 2 355 319 260 292 323 323 342 286 281 272 227 234 280 288 252 266 236 233 222 181 217 215 249 254 260 263 247 270 239 246 249 238 236 220
47 64 344 352 42 51 193 250 327 348 355 346 318 306 308 312 277 276 259 315 0 348 323 290 243 273 259 231 247 212 228 221 220 221 244 258 257 223 242 242 245 244 242 237 220
25 74 336 7 27 32 9 342 344 336 7 345 336 339 353 323 296 300 277 261 22 9 333 312 292 278 269 253 245 240 232 224 232 242 241 246 257 236 232 275 263 258 252 238 220
42 330 338 35 60 13 346 328 322 16 339 323 300 324 332 321 322 305 332 345 9 7 354 346 291 304 295 291 351 329 320 303 249 246 246 248 259 247 255 258 256 267 270 242 223
45 24 348 45 51 59 357 307 338 327 319 346 303 27 356 326 320 309 323 349 346 318 308 295 271 283 284 321 331 304 314 314 344 277 265 249 262 264 268 265 257 261 264 255 223
33 59 15 329 345 339 306 276 297 323 355 347 315 353 333 299 308 274 323 313 300 295 192 262 277 269 264 278 282 280 272 280 286 291 291 289 291 273 263 256 250 256 273 268 238
68 35 7 296 304 321 322 282 307 319 340 292 308 319 316 290 279 302 311 310 289 281 257 225 275 275 275 277 276 281 280 260 259 262 277 289 296 309 286 285 264 254 244 250 240
12 22 124 280 297 326 260 324 295 318 294 247 322 311 297 290 303 288 276 278 272 274 271 262 265 268 275 282 290 281 263 249 253 252 252 267 318 345 351 343 296 257 244 235 229